LLN507 KDHN-KCLT

Flight info

Callsign LLN507
Flight time 1h 16m
Altitude 29000
Route MCN PONZE BANKR5
Aircraft C550/L-SDFGHRWY/S

Departure

Time 2026-04-15 19:20
Airport Dothan Regional Airport (KDHN)

Arrival

Time 2026-04-15 20:37
Airport Charlotte Douglas International Airport (KCLT)
Time Latitude Longitude Altitude Speed Heading
2026-04-15 18:40 31.31905 -85.45190 404 ft 0 kts 221°
2026-04-15 19:13 31.31905 -85.45189 405 ft 1 kts 221°
2026-04-15 19:13 31.31914 -85.45178 405 ft 2 kts 237°
2026-04-15 19:13 31.31921 -85.45158 405 ft 3 kts 262°
2026-04-15 19:13 31.31921 -85.45143 405 ft 0 kts 275°
2026-04-15 19:14 31.31932 -85.45150 405 ft 6 kts
2026-04-15 19:14 31.31989 -85.45139 405 ft 9 kts 320°
2026-04-15 19:14 31.32032 -85.45187 405 ft 8 kts 316°
2026-04-15 19:14 31.32070 -85.45231 405 ft 7 kts 314°
2026-04-15 19:15 31.32104 -85.45272 405 ft 7 kts 315°
2026-04-15 19:15 31.32152 -85.45325 405 ft 12 kts 316°
2026-04-15 19:15 31.32215 -85.45397 405 ft 13 kts 315°
2026-04-15 19:15 31.32276 -85.45468 405 ft 12 kts 315°
2026-04-15 19:16 31.32333 -85.45535 405 ft 11 kts 315°
2026-04-15 19:16 31.32388 -85.45595 405 ft 11 kts 317°
2026-04-15 19:16 31.32439 -85.45652 405 ft 10 kts 315°
2026-04-15 19:16 31.32485 -85.45707 405 ft 9 kts 315°
2026-04-15 19:17 31.32530 -85.45756 405 ft 8 kts 316°
2026-04-15 19:17 31.32572 -85.45804 405 ft 9 kts 315°
2026-04-15 19:17 31.32626 -85.45867 405 ft 13 kts 315°
2026-04-15 19:17 31.32698 -85.45950 405 ft 15 kts 315°
2026-04-15 19:18 31.32769 -85.46034 405 ft 14 kts 315°
2026-04-15 19:18 31.32838 -85.46111 405 ft 13 kts 317°
2026-04-15 19:18 31.32951 -85.46230 405 ft 9 kts 339°
2026-04-15 19:19 31.32996 -85.46204 405 ft 7 kts 41°
2026-04-15 19:19 31.33022 -85.46176 405 ft 5 kts 43°
2026-04-15 19:19 31.33034 -85.46140 405 ft 8 kts 112°
2026-04-15 19:19 31.32917 -85.45997 405 ft 54 kts 135°
2026-04-15 19:20 31.32510 -85.45515 405 ft 112 kts 134°
2026-04-15 19:20 31.31895 -85.44812 803 ft 122 kts 137°
2026-04-15 19:20 31.31268 -85.44140 1403 ft 133 kts 131°
2026-04-15 19:20 31.30736 -85.43142 1843 ft 154 kts 112°
2026-04-15 19:21 31.30548 -85.41896 2578 ft 156 kts 91°
2026-04-15 19:21 31.30775 -85.40678 3425 ft 152 kts 70°
2026-04-15 19:21 31.31387 -85.39649 4112 ft 161 kts 49°
2026-04-15 19:21 31.32332 -85.38832 4687 ft 177 kts 31°
2026-04-15 19:22 31.33506 -85.38343 5457 ft 180 kts 13°
2026-04-15 19:22 31.34741 -85.38301 6308 ft 177 kts 354°
2026-04-15 19:22 31.35919 -85.38747 6946 ft 183 kts 332°
2026-04-15 19:22 31.36957 -85.39679 7478 ft 195 kts 313°
2026-04-15 19:23 31.38065 -85.40739 7816 ft 219 kts 338°
2026-04-15 19:23 31.39618 -85.40893 8141 ft 235 kts 17°
2026-04-15 19:23 31.41028 -85.39887 8470 ft 246 kts 51°
2026-04-15 19:23 31.42010 -85.38187 8831 ft 259 kts 64°
2026-04-15 19:24 31.42860 -85.36267 9196 ft 272 kts 66°
2026-04-15 19:24 31.43770 -85.34291 9554 ft 285 kts 63°
2026-04-15 19:24 31.44837 -85.32271 9915 ft 297 kts 58°
2026-04-15 19:24 31.46048 -85.30251 10272 ft 308 kts 55°
2026-04-15 19:25 31.47383 -85.28232 10629 ft 318 kts 52°
2026-04-15 19:25 31.48826 -85.26198 10986 ft 329 kts 51°
2026-04-15 19:25 31.50335 -85.24176 11337 ft 320 kts 49°
2026-04-15 19:25 31.51767 -85.22323 11669 ft 296 kts 49°
2026-04-15 19:26 31.53115 -85.20608 12004 ft 277 kts 48°
2026-04-15 19:26 31.54393 -85.19000 12341 ft 261 kts 47°
2026-04-15 19:26 31.55602 -85.17491 12676 ft 247 kts 47°
2026-04-15 19:26 31.56756 -85.16060 13020 ft 235 kts 47°
2026-04-15 19:27 31.57861 -85.14698 13357 ft 225 kts 47°
2026-04-15 19:27 31.58923 -85.13398 13684 ft 215 kts 46°
2026-04-15 19:27 31.59919 -85.12185 14011 ft 204 kts 46°
2026-04-15 19:27 31.60877 -85.11025 14341 ft 192 kts 46°
2026-04-15 19:28 31.61781 -85.09933 14666 ft 181 kts 45°
2026-04-15 19:28 31.62634 -85.08906 14990 ft 172 kts 45°
2026-04-15 19:28 31.63467 -85.07907 15332 ft 172 kts 45°
2026-04-15 19:28 31.64316 -85.06892 15690 ft 176 kts 45°
2026-04-15 19:29 31.65187 -85.05852 16025 ft 182 kts 45°
2026-04-15 19:29 31.66102 -85.04763 16302 ft 192 kts 44°
2026-04-15 19:29 31.67064 -85.03619 16572 ft 202 kts 44°
2026-04-15 19:29 31.68079 -85.02413 16840 ft 213 kts 44°
2026-04-15 19:30 31.69145 -85.01145 17105 ft 223 kts 44°
2026-04-15 19:30 31.70261 -84.99818 17369 ft 233 kts 44°
2026-04-15 19:30 31.71423 -84.98436 17631 ft 243 kts 44°
2026-04-15 19:30 31.72220 -84.97488 17804 ft 249 kts 44°
2026-04-15 19:31 31.73461 -84.96010 18064 ft 258 kts 44°
2026-04-15 19:31 31.74744 -84.94483 18323 ft 267 kts 44°
2026-04-15 19:31 31.76067 -84.92907 18583 ft 275 kts 44°
2026-04-15 19:31 31.77424 -84.91290 18894 ft 280 kts 44°
2026-04-15 19:32 31.78799 -84.89649 19248 ft 283 kts 44°
2026-04-15 19:32 31.80187 -84.87992 19623 ft 285 kts 44°
2026-04-15 19:32 31.81584 -84.86322 20000 ft 287 kts 44°
2026-04-15 19:32 31.82989 -84.84643 20376 ft 289 kts 43°
2026-04-15 19:33 31.84403 -84.82952 20753 ft 290 kts 44°
2026-04-15 19:33 31.85817 -84.81260 21128 ft 291 kts 43°
2026-04-15 19:33 31.87239 -84.79559 21504 ft 293 kts 43°
2026-04-15 19:33 31.88684 -84.77830 21883 ft 299 kts 43°
2026-04-15 19:34 31.90152 -84.76072 22262 ft 303 kts 43°
2026-04-15 19:34 31.91644 -84.74286 22690 ft 305 kts 43°
2026-04-15 19:34 31.93114 -84.72523 23151 ft 306 kts 43°
2026-04-15 19:34 31.94603 -84.70736 23626 ft 305 kts 43°
2026-04-15 19:35 31.96084 -84.68958 24099 ft 304 kts 43°
2026-04-15 19:35 31.97562 -84.67181 24573 ft 303 kts 43°
2026-04-15 19:35 31.99034 -84.65411 25048 ft 301 kts 43°
2026-04-15 19:35 32.00492 -84.63658 25521 ft 298 kts 43°
2026-04-15 19:36 32.01946 -84.61908 25951 ft 297 kts 42°
2026-04-15 19:36 32.03396 -84.60163 26336 ft 298 kts 42°
2026-04-15 19:36 32.04846 -84.58418 26714 ft 298 kts 42°
2026-04-15 19:36 32.06295 -84.56674 27089 ft 298 kts 42°
2026-04-15 19:37 32.07739 -84.54933 27463 ft 297 kts 42°
2026-04-15 19:37 32.09162 -84.53218 27832 ft 296 kts 41°
2026-04-15 19:37 32.10618 -84.51461 28211 ft 295 kts 41°
2026-04-15 19:37 32.12029 -84.49759 28580 ft 293 kts 41°
2026-04-15 19:38 32.13465 -84.48023 28957 ft 291 kts 41°
2026-04-15 19:38 32.14865 -84.46333 29189 ft 295 kts 41°
2026-04-15 19:38 32.16318 -84.44583 29296 ft 302 kts 41°
2026-04-15 19:38 32.17812 -84.42783 29335 ft 311 kts 41°
2026-04-15 19:39 32.20946 -84.39008 29341 ft 332 kts 42°
2026-04-15 19:39 32.22591 -84.37024 29340 ft 343 kts 42°
2026-04-15 19:39 32.24289 -84.34974 29340 ft 355 kts 42°
2026-04-15 19:40 32.27823 -84.30699 29339 ft 372 kts 42°
2026-04-15 19:40 32.31493 -84.26246 29340 ft 384 kts 43°
2026-04-15 19:41 32.35241 -84.21689 29346 ft 392 kts 43°
2026-04-15 19:41 32.39080 -84.17015 29353 ft 399 kts 43°
2026-04-15 19:42 32.42974 -84.12266 29359 ft 404 kts 43°
2026-04-15 19:42 32.46907 -84.07463 29365 ft 407 kts 43°
2026-04-15 19:43 32.50859 -84.02630 29370 ft 409 kts 43°
2026-04-15 19:43 32.54822 -83.97777 29372 ft 410 kts 43°
2026-04-15 19:44 32.58794 -83.92908 29374 ft 410 kts 43°
2026-04-15 19:44 32.62762 -83.88036 29374 ft 410 kts 43°
2026-04-15 19:45 32.66695 -83.83203 29374 ft 410 kts 43°
2026-04-15 19:45 32.70685 -83.78292 29370 ft 411 kts 43°
2026-04-15 19:46 32.74633 -83.73428 29370 ft 411 kts 43°
2026-04-15 19:46 32.78539 -83.68456 29371 ft 412 kts 44°
2026-04-15 19:47 32.82298 -83.63294 29372 ft 413 kts 47°
2026-04-15 19:47 32.85931 -83.58053 29375 ft 413 kts 47°
2026-04-15 19:48 32.89603 -83.52778 29370 ft 413 kts 46°
2026-04-15 19:48 32.93397 -83.47645 29368 ft 413 kts 45°
2026-04-15 19:49 32.97238 -83.42567 29365 ft 413 kts 45°
2026-04-15 19:49 33.01097 -83.37497 29363 ft 413 kts 44°
2026-04-15 19:50 33.04967 -83.32424 29361 ft 413 kts 44°
2026-04-15 19:50 33.08811 -83.27393 29360 ft 413 kts 44°
2026-04-15 19:51 33.12697 -83.22348 29359 ft 412 kts 43°
2026-04-15 19:51 33.16710 -83.17464 29359 ft 412 kts 41°
2026-04-15 19:52 33.20775 -83.12641 29360 ft 412 kts 41°
2026-04-15 19:52 33.24852 -83.07828 29363 ft 412 kts 41°
2026-04-15 19:53 33.28937 -83.03016 29366 ft 411 kts 41°
2026-04-15 19:53 33.33020 -82.98211 29369 ft 411 kts 41°
2026-04-15 19:54 33.37104 -82.93411 29371 ft 411 kts 41°
2026-04-15 19:54 33.41155 -82.88640 29373 ft 411 kts 41°
2026-04-15 19:55 33.45232 -82.83837 29374 ft 411 kts 41°
2026-04-15 19:55 33.49311 -82.79034 29402 ft 411 kts 41°
2026-04-15 19:56 33.53380 -82.74235 29410 ft 411 kts 41°
2026-04-15 19:56 33.57452 -82.69429 29416 ft 411 kts 41°
2026-04-15 19:57 33.61520 -82.64629 29418 ft 411 kts 41°
2026-04-15 19:57 33.65605 -82.59798 29419 ft 411 kts 41°
2026-04-15 19:58 33.69683 -82.54974 29417 ft 411 kts 40°
2026-04-15 19:58 33.73723 -82.50182 29413 ft 397 kts 40°
2026-04-15 19:59 33.75630 -82.47906 29342 ft 386 kts 40°
2026-04-15 19:59 33.77515 -82.45648 29167 ft 379 kts 40°
2026-04-15 19:59 33.79370 -82.43424 28970 ft 374 kts 40°
2026-04-15 19:59 33.81205 -82.41222 28769 ft 371 kts 40°
2026-04-15 20:00 33.83029 -82.39032 28568 ft 369 kts 41°
2026-04-15 20:00 33.84841 -82.36857 28367 ft 367 kts 40°
2026-04-15 20:00 33.86654 -82.34685 28166 ft 366 kts 40°
2026-04-15 20:00 33.88462 -82.32523 27966 ft 366 kts 40°
2026-04-15 20:01 33.90269 -82.30368 27765 ft 365 kts 40°
2026-04-15 20:01 33.92051 -82.28248 27585 ft 365 kts 40°
2026-04-15 20:01 33.93852 -82.26106 27463 ft 363 kts 40°
2026-04-15 20:01 33.95554 -82.23812 27405 ft 364 kts 50°
2026-04-15 20:02 33.96867 -82.21267 27399 ft 363 kts 57°
2026-04-15 20:02 33.98018 -82.18559 27400 ft 362 kts 60°
2026-04-15 20:02 33.99149 -82.15870 27400 ft 357 kts 54°
2026-04-15 20:02 34.00586 -82.13448 27401 ft 352 kts 46°
2026-04-15 20:03 34.02189 -82.11238 27400 ft 350 kts 43°
2026-04-15 20:03 34.03844 -82.09137 27255 ft 339 kts 41°
2026-04-15 20:03 34.05484 -82.07122 26789 ft 334 kts 41°
2026-04-15 20:03 34.07108 -82.05163 26354 ft 324 kts 40°
2026-04-15 20:04 34.08680 -82.03278 25924 ft 312 kts 40°
2026-04-15 20:04 34.10199 -82.01463 25495 ft 303 kts 40°
2026-04-15 20:04 34.11685 -81.99694 25067 ft 297 kts 40°
2026-04-15 20:04 34.13141 -81.97966 24640 ft 291 kts 40°
2026-04-15 20:05 34.14580 -81.96266 24214 ft 288 kts 40°
2026-04-15 20:05 34.16006 -81.94589 23787 ft 285 kts 40°
2026-04-15 20:05 34.17422 -81.92932 23362 ft 283 kts 40°
2026-04-15 20:05 34.18747 -81.91219 22942 ft 282 kts 46°
2026-04-15 20:06 34.20009 -81.89398 22518 ft 282 kts 47°
2026-04-15 20:06 34.21238 -81.87562 22094 ft 281 kts 48°
2026-04-15 20:06 34.22457 -81.85725 21669 ft 280 kts 48°
2026-04-15 20:06 34.23676 -81.83890 21242 ft 279 kts 48°
2026-04-15 20:07 34.24892 -81.82066 20817 ft 278 kts 48°
2026-04-15 20:07 34.26111 -81.80248 20392 ft 278 kts 48°
2026-04-15 20:07 34.27331 -81.78439 19967 ft 277 kts 48°
2026-04-15 20:07 34.28556 -81.76632 19541 ft 277 kts 48°
2026-04-15 20:08 34.29780 -81.74835 19116 ft 277 kts 48°
2026-04-15 20:08 34.30989 -81.73065 18696 ft 276 kts 48°
2026-04-15 20:08 34.32214 -81.71278 18272 ft 276 kts 48°
2026-04-15 20:08 34.33446 -81.69494 17846 ft 276 kts 48°
2026-04-15 20:09 34.34676 -81.67716 17422 ft 275 kts 48°
2026-04-15 20:09 34.35965 -81.66002 16997 ft 275 kts 44°
2026-04-15 20:09 34.37300 -81.64347 16572 ft 274 kts 44°
2026-04-15 20:09 34.38648 -81.62722 16147 ft 274 kts 43°
2026-04-15 20:10 34.40004 -81.61106 15723 ft 273 kts 43°
2026-04-15 20:10 34.41367 -81.59495 15297 ft 273 kts 43°
2026-04-15 20:10 34.42728 -81.57897 14872 ft 272 kts 43°
2026-04-15 20:10 34.44093 -81.56304 14452 ft 272 kts 43°
2026-04-15 20:11 34.45445 -81.54735 14176 ft 266 kts 42°
2026-04-15 20:11 34.46868 -81.53345 13925 ft 260 kts 35°
2026-04-15 20:11 34.48354 -81.52122 13674 ft 256 kts 32°
2026-04-15 20:11 34.49847 -81.50978 13422 ft 252 kts 32°
2026-04-15 20:12 34.51311 -81.49819 13170 ft 250 kts 32°
2026-04-15 20:12 34.52735 -81.48675 12923 ft 248 kts 33°
2026-04-15 20:12 34.54160 -81.47528 12671 ft 243 kts 33°
2026-04-15 20:12 34.55561 -81.46405 12419 ft 240 kts 33°
2026-04-15 20:13 34.56950 -81.45294 12167 ft 237 kts 33°
2026-04-15 20:13 34.58326 -81.44198 11915 ft 235 kts 33°
2026-04-15 20:13 34.59691 -81.43114 11664 ft 234 kts 33°
2026-04-15 20:13 34.61048 -81.42042 11413 ft 232 kts 33°
2026-04-15 20:14 34.62402 -81.40979 11187 ft 229 kts 33°
2026-04-15 20:14 34.63283 -81.40289 11092 ft 226 kts 33°
2026-04-15 20:14 34.64589 -81.39270 11008 ft 219 kts 33°
2026-04-15 20:14 34.66238 -81.37985 10992 ft 206 kts 33°
2026-04-15 20:15 34.67430 -81.37057 10991 ft 201 kts 33°
2026-04-15 20:15 34.68218 -81.36444 10994 ft 197 kts 33°
2026-04-15 20:15 34.69729 -81.35269 10992 ft 192 kts 32°
2026-04-15 20:15 34.70486 -81.34679 10991 ft 190 kts 32°
2026-04-15 20:16 34.71594 -81.33816 10990 ft 187 kts 33°
2026-04-15 20:16 34.72696 -81.32958 10995 ft 192 kts 32°
2026-04-15 20:16 34.73839 -81.32068 11003 ft 203 kts 32°
2026-04-15 20:16 34.75060 -81.31116 11008 ft 213 kts 32°
2026-04-15 20:17 34.76333 -81.30114 11007 ft 222 kts 33°
2026-04-15 20:17 34.77648 -81.29057 11004 ft 230 kts 33°
2026-04-15 20:17 34.78992 -81.27946 11002 ft 236 kts 36°
2026-04-15 20:17 34.80301 -81.26700 11001 ft 242 kts 39°
2026-04-15 20:18 34.81597 -81.25366 11000 ft 246 kts 41°
2026-04-15 20:18 34.82883 -81.23973 10999 ft 248 kts 42°
2026-04-15 20:18 34.84168 -81.22559 10998 ft 249 kts 42°
2026-04-15 20:18 34.85455 -81.21132 10998 ft 250 kts 43°
2026-04-15 20:19 34.86716 -81.19677 10998 ft 251 kts 44°
2026-04-15 20:19 34.87966 -81.18207 10996 ft 247 kts 44°
2026-04-15 20:19 34.89174 -81.16779 10996 ft 243 kts 44°
2026-04-15 20:19 34.90398 -81.15332 10980 ft 242 kts 44°
2026-04-15 20:20 34.91622 -81.13884 10719 ft 246 kts 44°
2026-04-15 20:20 34.92832 -81.12457 10422 ft 244 kts 44°
2026-04-15 20:20 34.94053 -81.11024 10119 ft 242 kts 45°
2026-04-15 20:20 34.95264 -81.09611 9828 ft 241 kts 44°
2026-04-15 20:21 34.96515 -81.08244 9529 ft 241 kts 41°
2026-04-15 20:21 34.97801 -81.06919 9220 ft 241 kts 41°
2026-04-15 20:21 34.99093 -81.05629 8920 ft 240 kts 38°
2026-04-15 20:21 35.00581 -81.04706 8629 ft 240 kts 18°
2026-04-15 20:22 35.02195 -81.04308 8336 ft 240 kts
2026-04-15 20:22 35.03852 -81.04393 8130 ft 235 kts 349°
2026-04-15 20:22 35.05421 -81.04781 8032 ft 226 kts 346°
2026-04-15 20:22 35.06924 -81.05174 8009 ft 216 kts 346°
2026-04-15 20:23 35.08640 -81.05621 7996 ft 208 kts 346°
2026-04-15 20:23 35.10033 -81.05982 7985 ft 201 kts 346°
2026-04-15 20:23 35.11395 -81.06235 7989 ft 195 kts 353°
2026-04-15 20:23 35.12725 -81.06330 7998 ft 190 kts 356°
2026-04-15 20:24 35.14042 -81.06381 7994 ft 187 kts 357°
2026-04-15 20:24 35.16612 -81.06463 7989 ft 181 kts 357°
2026-04-15 20:24 35.17884 -81.06503 8004 ft 188 kts 357°
2026-04-15 20:25 35.19231 -81.06547 7957 ft 201 kts 357°
2026-04-15 20:25 35.20683 -81.06596 7724 ft 221 kts 357°
2026-04-15 20:25 35.22270 -81.06653 7484 ft 235 kts 357°
2026-04-15 20:25 35.23946 -81.06718 7250 ft 247 kts 357°
2026-04-15 20:26 35.25697 -81.06789 7003 ft 256 kts 357°
2026-04-15 20:26 35.27506 -81.06862 6749 ft 263 kts 357°
2026-04-15 20:26 35.29348 -81.06937 6501 ft 267 kts 357°
2026-04-15 20:26 35.31216 -81.07017 6256 ft 270 kts 357°
2026-04-15 20:27 35.33085 -81.07099 6108 ft 268 kts 357°
2026-04-15 20:27 35.34925 -81.06876 6027 ft 264 kts 16°
2026-04-15 20:27 35.36625 -81.06089 6012 ft 258 kts 25°
2026-04-15 20:27 35.38188 -81.05178 5993 ft 237 kts 27°
2026-04-15 20:28 35.39592 -81.04309 5985 ft 216 kts 28°
2026-04-15 20:28 35.40887 -81.03498 5958 ft 202 kts 28°
2026-04-15 20:28 35.42133 -81.02716 5731 ft 201 kts 28°
2026-04-15 20:28 35.43376 -81.01936 5510 ft 200 kts 28°
2026-04-15 20:29 35.44605 -81.01162 5289 ft 200 kts 28°
2026-04-15 20:29 35.45846 -81.00378 5059 ft 200 kts 28°
2026-04-15 20:29 35.47074 -80.99604 4902 ft 196 kts 28°
2026-04-15 20:29 35.48265 -80.98854 4815 ft 188 kts 28°
2026-04-15 20:30 35.49391 -80.98125 4792 ft 178 kts 34°
2026-04-15 20:30 35.50064 -80.96980 4784 ft 162 kts 85°
2026-04-15 20:30 35.49766 -80.95747 4805 ft 152 kts 139°
2026-04-15 20:30 35.48808 -80.95320 4824 ft 150 kts 180°
2026-04-15 20:31 35.47761 -80.95440 4823 ft 154 kts 194°
2026-04-15 20:31 35.46738 -80.95904 4814 ft 159 kts 202°
2026-04-15 20:31 35.45687 -80.96488 4519 ft 179 kts 204°
2026-04-15 20:31 35.44490 -80.97169 3998 ft 188 kts 204°
2026-04-15 20:32 35.43340 -80.97466 3981 ft 157 kts 177°
2026-04-15 20:32 35.42352 -80.97270 3971 ft 136 kts 168°
2026-04-15 20:32 35.41462 -80.97006 3975 ft 128 kts 168°
2026-04-15 20:32 35.40601 -80.96780 3993 ft 128 kts 170°
2026-04-15 20:33 35.39702 -80.96605 3991 ft 135 kts 173°
2026-04-15 20:33 35.38722 -80.96485 3856 ft 146 kts 176°
2026-04-15 20:33 35.37690 -80.96421 3728 ft 151 kts 179°
2026-04-15 20:33 35.36628 -80.96394 3568 ft 155 kts 180°
2026-04-15 20:34 35.35906 -80.96382 3437 ft 158 kts 179°
2026-04-15 20:34 35.34795 -80.96354 3222 ft 162 kts 179°
2026-04-15 20:34 35.33654 -80.96295 2984 ft 166 kts 177°
2026-04-15 20:34 35.32493 -80.96201 2737 ft 168 kts 176°
2026-04-15 20:35 35.31318 -80.96080 2483 ft 170 kts 175°
2026-04-15 20:35 35.30165 -80.95956 2233 ft 161 kts 176°
2026-04-15 20:35 35.29093 -80.95848 1983 ft 154 kts 176°
2026-04-15 20:35 35.28013 -80.95748 1784 ft 153 kts 177°
2026-04-15 20:36 35.26972 -80.95661 1609 ft 152 kts 178°
2026-04-15 20:36 35.25913 -80.95579 1412 ft 152 kts 178°
2026-04-15 20:36 35.24858 -80.95494 1226 ft 152 kts 178°
2026-04-15 20:37 35.22398 -80.95306 760 ft 146 kts 176°
2026-04-15 20:37 35.21668 -80.95235 752 ft 48 kts 172°
2026-04-15 20:37 35.21444 -80.95199 752 ft 23 kts 177°
2026-04-15 20:37 35.21375 -80.95139 752 ft 9 kts 43°